Tracking 27107 objects as of 20-Mar-2023
HD Live streaming from Space Station
objects crossing your sky now

SL-16 DEB

Track SL-16 DEB now!
10-day predictions


NORAD ID: 22356
Int'l Code: 1992-093AV
Perigee: 662.0 km
Apogee: 725.3 km
Inclination: 70.7 °
Period: 98.5 minutes
Semi major axis: 7064 km
RCS: 0.0093 m2 (small)
Launch date: December 25, 1992
Source: Commonwealth of Independent States (former USSR) (CIS)
Launch site: TYURATAM MISSILE AND SPACE COMPLEX (TTMTR)

Note: This is SATELLITE DEBRIS
Your satellite tracking list
Your tracking list is empty




NASA's NSSDC Master Catalog

Two Line Element Set (TLE):
1 22356U 92093AV  23078.67451354  .00026863  00000-0  52598-2 0  9992
2 22356  70.6760 158.3154 0044758 216.0180 296.9090 14.62071903568062
Source of the keplerian elements: AFSPC